Location: Charleville
(26.4021°S, 146.2454°E)
Time: 01:56:33
(UTC+10:00)

Hubble Space Telescope - Visible Passes

Search period start: 21 April 2024 00:00
Search period end: 01 May 2024 00:00
Orbit: 513 x 517 km, 28.5° (Epoch: 19 April)

Date Brightness Start Highest point End Pass type
(mag) Time Alt. Az. Time Alt. Az. Time Alt. Az.
21 Apr 3.9 03:58:46 12° ESE 03:58:46 12° ESE 03:59:09 10° ESE visible
21 Apr 0.8 05:33:38 24° WSW 05:35:55 67° S 05:39:57 10° E visible
22 Apr 0.7 05:16:34 42° WSW 05:17:47 71° S 05:21:49 10° E visible
23 Apr 0.6 04:59:28 73° SSW 04:59:37 75° S 05:03:39 10° E visible
24 Apr 1.5 04:42:22 50° E 04:42:22 50° E 04:45:27 10° E visible
25 Apr 2.7 04:25:16 27° E 04:25:16 27° E 04:27:12 10° E visible
25 Apr 1.7 06:00:08 11° W 06:03:42 34° NNW 06:07:21 10° NE visible
26 Apr 3.6 04:08:10 15° ENE 04:08:10 15° ENE 04:08:55 10° ENE visible
26 Apr 1.9 05:43:02 17° WNW 05:45:22 29° NNW 05:48:53 10° NE visible
27 Apr 2.1 05:25:56 22° NW 05:27:01 25° NNW 05:30:21 10° NNE visible
28 Apr 2.3 05:08:50 22° NNW 05:08:50 22° NNW 05:11:45 10° NNE visible
29 Apr 3.0 04:51:44 15° N 04:51:44 15° N 04:53:02 10° NNE visible
